Change the Weather History Date:

Wednesday, January 11, 2012

  Actual Average Record
Temperature  
Mean Temperature 24 °F -  
Max Temperature 33 °F 27 °F 51 °F (2000)
Min Temperature 15 °F 10 °F -11 °F (2004)
Degree Days  
Heating Degree Days 41    
Moisture  
Dew Point 15 °F    
Average Humidity 62    
Maximum Humidity 93    
Minimum Humidity 35    
Precipitation  
Precipitation 0.00 in - - ()
Sea Level Pressure  
Sea Level Pressure 30.07 in    
Wind  
Wind Speed 5 mph (ENE)    
Max Wind Speed 10 mph    
Max Gust Speed -    
Visibility 10 miles    
Events      
Averages and records for this station are not official NWS values.
T = Trace of Precipitation, MM = Missing Value Source: NWS Daily Summary

Daily Weather History Graph

Daily Weather History Graph

Search for Another Location

Airport or City:

Trip Planner

Search our weather history database for the weather conditions in past years. The results will help you decide how hot, cold, wet, or windy it might be!

Date:

Astronomy

Jan. 11, 2012 Rise Set
Actual Time 7:14 AM EST 4:27 PM EST
Civil Twilight 6:42 AM EST 4:59 PM EST
Nautical Twilight 6:06 AM EST 5:34 PM EST
Astronomical Twilight 5:32 AM EST 6:09 PM EST
Moon 7:28 PM EST (1/11) 8:19 AM EST (1/11)
Length of Visible Light 10h 16m
Length of Day
9h 12m
Waning Gibbous, 93% of the Moon is Illuminated
Jan 11
Waning Gibbous
Jan 16
Last Quarter
Jan 23
New
Jan 30
First Quarter
Feb 7
Full

Hourly Weather History & Observations

Time (EST) Temp. Windchill Dew Point Humidity Pressure Visibility Wind Dir Wind Speed Gust Speed Precip Events Conditions
12:15 AM 30.2 °F 21.3 °F 17.6 °F 60% 29.90 in 10.0 mi West 10.4 mph - N/A   Clear
12:55 AM 30.2 °F 22.6 °F 14.0 °F 51% 29.92 in 10.0 mi West 8.1 mph - N/A   Clear
1:15 AM 30.2 °F 23.4 °F 17.6 °F 60% 29.93 in 10.0 mi West 6.9 mph - N/A   Clear
1:35 AM 28.4 °F 23.3 °F 17.6 °F 64% 29.94 in 10.0 mi West 4.6 mph - N/A   Clear
1:55 AM 28.4 °F 22.2 °F 15.8 °F 59% 29.95 in 10.0 mi West 5.8 mph - N/A   Clear
2:15 AM 24.8 °F - 14.0 °F 64% 29.96 in 10.0 mi Calm Calm - N/A   Clear
3:15 AM 21.2 °F 16.4 °F 12.2 °F 68% 29.97 in 10.0 mi NE 3.5 mph - N/A   Clear
3:35 AM 19.4 °F 12.8 °F 17.6 °F 93% 29.97 in 10.0 mi NNE 4.6 mph - N/A   Clear
3:55 AM 21.2 °F - 12.2 °F 68% 29.97 in 10.0 mi Calm Calm - N/A   Clear
4:15 AM 19.4 °F - 15.8 °F 86% 29.98 in 10.0 mi Calm Calm - N/A   Clear
4:35 AM 19.4 °F - 15.8 °F 86% 29.99 in 10.0 mi Calm Calm - N/A   Clear
4:55 AM 17.6 °F 12.3 °F 10.4 °F 73% 30.00 in 10.0 mi WSW 3.5 mph - N/A   Clear
5:55 AM 19.4 °F 11.5 °F 15.8 °F 86% 30.03 in 10.0 mi North 5.8 mph - N/A   Clear
6:15 AM 19.4 °F 11.5 °F 10.4 °F 68% 30.03 in 10.0 mi NNE 5.8 mph - N/A   Clear
6:35 AM 17.6 °F 8.2 °F 12.2 °F 79% 30.03 in 10.0 mi NNE 6.9 mph - N/A   Clear
6:55 AM 17.6 °F - 8.6 °F 68% 30.05 in 10.0 mi Calm Calm - N/A   Clear
7:15 AM 15.8 °F - 10.4 °F 79% 30.06 in 10.0 mi Calm Calm - N/A   Clear
7:35 AM 15.8 °F - 10.4 °F 79% 30.07 in 10.0 mi Calm Calm - N/A   Scattered Clouds
8:15 AM 23.0 °F 15.8 °F 14.0 °F 68% 30.09 in 10.0 mi NE 5.8 mph - N/A   Overcast
8:35 AM 23.0 °F 17.0 °F 12.2 °F 63% 30.10 in 10.0 mi NE 4.6 mph - N/A   Overcast
8:55 AM 24.8 °F 20.5 °F 10.4 °F 54% 30.11 in 10.0 mi NNE 3.5 mph - N/A   Mostly Cloudy
9:15 AM 26.6 °F 20.0 °F 8.6 °F 47% 30.12 in 10.0 mi North 5.8 mph - N/A   Mostly Cloudy
9:35 AM 26.6 °F - 10.4 °F 51% 30.13 in 10.0 mi Calm Calm - N/A   Overcast
10:15 AM 28.4 °F - 8.6 °F 43% 30.13 in 10.0 mi Calm Calm - N/A   Clear
10:35 AM 28.4 °F - 6.8 °F 40% 30.13 in 10.0 mi Calm Calm - N/A   Clear
10:55 AM 28.4 °F 24.6 °F 6.8 °F 40% 30.12 in 10.0 mi NNE 3.5 mph - N/A   Mostly Cloudy
11:15 AM 30.2 °F 26.7 °F 8.6 °F 40% 30.10 in 10.0 mi NE 3.5 mph - N/A   Overcast
11:35 AM 30.2 °F - 8.6 °F 40% 30.10 in 10.0 mi Calm Calm - N/A   Overcast
11:55 AM 32.0 °F - 8.6 °F 38% 30.10 in 10.0 mi Calm Calm - N/A   Overcast
12:15 PM 30.2 °F - 8.6 °F 40% 30.09 in 10.0 mi Calm Calm - N/A   Overcast
12:55 PM 33.8 °F 30.8 °F 8.6 °F 35% 30.08 in 10.0 mi NNE 3.5 mph - N/A   Mostly Cloudy
1:15 PM 33.8 °F 29.6 °F 8.6 °F 35% 30.08 in 10.0 mi SSE 4.6 mph - N/A   Clear
1:35 PM 33.8 °F 28.6 °F 8.6 °F 35% 30.09 in 10.0 mi SSE 5.8 mph - N/A   Clear
1:55 PM 32.0 °F 24.8 °F 8.6 °F 38% 30.10 in 10.0 mi SE 8.1 mph - N/A   Clear
2:15 PM 32.0 °F 26.4 °F 8.6 °F 38% 30.11 in 10.0 mi SSE 5.8 mph - N/A   Mostly Cloudy
2:35 PM 30.2 °F 22.6 °F 10.4 °F 44% 30.11 in 10.0 mi East 8.1 mph - N/A   Overcast
3:35 PM 30.2 °F 26.7 °F 17.6 °F 60% 30.12 in 10.0 mi East 3.5 mph - N/A   Overcast
3:55 PM 30.2 °F 23.4 °F 17.6 °F 60% 30.13 in 10.0 mi ESE 6.9 mph - N/A   Overcast
4:35 PM 30.2 °F 25.4 °F 17.6 °F 60% 30.13 in 10.0 mi ESE 4.6 mph - N/A   Overcast
4:55 PM 30.2 °F 26.7 °F 17.6 °F 60% 30.13 in 10.0 mi ESE 3.5 mph - N/A   Overcast
5:15 PM 30.2 °F 26.7 °F 21.2 °F 69% 30.14 in 10.0 mi ESE 3.5 mph - N/A   Overcast
5:55 PM 30.2 °F 26.7 °F 19.4 °F 64% 30.13 in 10.0 mi East 3.5 mph - N/A   Overcast
6:15 PM 28.4 °F 24.6 °F 17.6 °F 64% 30.13 in 10.0 mi ENE 3.5 mph - N/A   Overcast
6:35 PM 28.4 °F 23.3 °F 19.4 °F 69% 30.14 in 10.0 mi ENE 4.6 mph - N/A   Overcast
7:15 PM 28.4 °F 23.3 °F 19.4 °F 69% 30.14 in 10.0 mi ENE 4.6 mph - N/A   Overcast
7:35 PM 30.2 °F 25.4 °F 17.6 °F 60% 30.14 in 10.0 mi East 4.6 mph - N/A   Overcast
8:15 PM 30.2 °F 25.4 °F 21.2 °F 69% 30.13 in 10.0 mi ENE 4.6 mph - N/A   Overcast
8:35 PM 30.2 °F 25.4 °F 21.2 °F 69% 30.13 in 10.0 mi ENE 4.6 mph - N/A   Overcast
9:15 PM 30.2 °F - 24.8 °F 80% 30.13 in 10.0 mi Calm Calm - N/A   Overcast
9:55 PM 30.2 °F 24.3 °F 21.2 °F 69% 30.13 in 10.0 mi NE 5.8 mph - N/A   Overcast
10:35 PM 30.2 °F 25.4 °F 24.8 °F 80% 30.12 in 10.0 mi ENE 4.6 mph - N/A   Overcast
10:55 PM 30.2 °F 24.3 °F 21.2 °F 69% 30.11 in 10.0 mi NE 5.8 mph - N/A   Overcast
11:15 PM 30.2 °F 24.3 °F 21.2 °F 69% 30.11 in 10.0 mi NE 5.8 mph - N/A   Overcast
11:35 PM 30.2 °F 24.3 °F 26.6 °F 86% 30.10 in 10.0 mi NE 5.8 mph - N/A   Overcast
11:55 PM 30.2 °F - 24.8 °F 80% 30.12 in 10.0 mi Calm Calm - N/A   Overcast